Location: Cicognara
(44.9500°N, 10.4667°E)
Time: 22:04:24
(UTC+00:00)

Cosmos 1437 Rocket - Pass Details

Date: 20 June 2021
Orbit: 500 x 567 km, 81.2° (Epoch: 23 July)

Event Time Altitude Azimuth Distance (km) Brightness Sun altitude
Rises 23:30:00 0° 360° (N) 2,670 7.9 -21.6°
Reaches altitude 10° 23:32:27 10° 14° (NNE) 1,764 6.5 -21.6°
Maximum altitude 23:35:43 25° 71° (ENE) 1,059 4.4 -21.5°
Enters shadow 23:36:49 22° 99° (E) 1,157 4.4 -21.5°
